| time (UTC) | temp F | wind direction | speed knots | gust knots | rain 1hr in | rain 24hr in | rain mn in | humidity % | barometer mb |
| 20260509034941 | 74 | 116 | 0.0 | 1.7 | 0.00 | 0.01 | 0.01 | 93 | 1007.9 |
| 20260509034912 | 74 | 116 | 0.0 | 1.7 | 0.00 | 0.00 | 0.01 | 93 | 1009.1 |
| 20260509034435 | 74 | 97 | 0.0 | 1.7 | 0.00 | 0.01 | 0.01 | 93 | 1007.9 |
| 20260509034413 | 74 | 105 | 0.0 | 1.7 | 0.00 | 0.00 | 0.01 | 93 | 1009.1 |
| 20260509033940 | 74 | 111 | 0.9 | 1.7 | 0.00 | 0.00 | 0.01 | 93 | 1008.8 |
| 20260509033929 | 74 | 106 | 0.0 | 2.6 | 0.00 | 0.01 | 0.01 | 93 | 1007.8 |
| 20260509033443 | 74 | 91 | 0.9 | 2.6 | 0.00 | 0.00 | 0.01 | 93 | 1008.8 |
| 20260509032937 | 74 | 32 | 0.0 | 0.9 | 0.00 | 0.00 | 0.01 | 92 | 1008.8 |
| 20260509032918 | 74 | 32 | 0.9 | 3.5 | 0.00 | 0.01 | 0.01 | 92 | 1007.6 |
| 20260509032436 | 74 | 96 | 0.9 | 0.9 | 0.00 | 0.00 | 0.01 | 92 | 1008.8 |
| 20260509032412 | 74 | 96 | 0.9 | 2.6 | 0.00 | 0.01 | 0.01 | 92 | 1007.6 |
| 20260509032029 | 74 | 52 | 0.0 | 2.6 | 0.00 | 0.00 | 0.01 | 92 | 1008.5 |
| 20260509031528 | 74 | 105 | 0.0 | 1.7 | 0.00 | 0.00 | 0.01 | 92 | 1008.5 |
| 20260509031400 | 74 | 60 | 0.9 | 7.0 | 0.00 | 0.01 | 0.01 | 92 | 1007.2 |
| 20260509031028 | 74 | 61 | 0.9 | 7.0 | 0.00 | 0.00 | 0.01 | 92 | 1008.5 |
| 20260509030852 | 74 | 86 | 0.9 | 2.6 | 0.00 | 0.01 | 0.01 | 92 | 1007.3 |
| 20260509030529 | 74 | 65 | 0.0 | 1.7 | 0.00 | 0.00 | 0.01 | 92 | 1008.5 |
| 20260509030029 | 74 | 107 | 0.0 | 1.7 | 0.00 | 0.00 | 0.01 | 92 | 1008.5 |
| 20260509025529 | 74 | 125 | 0.0 | 0.9 | 0.00 | 0.00 | 0.01 | 92 | 1008.5 |
| 20260509025335 | 74 | 124 | 0.9 | 3.5 | 0.00 | 0.01 | 0.01 | 92 | 1007.4 |
| 20260509025028 | 74 | 55 | 2.6 | 2.6 | 0.00 | 0.00 | 0.01 | 92 | 1008.5 |
| 20260509024829 | 74 | 69 | 1.7 | 6.1 | 0.00 | 0.01 | 0.01 | 92 | 1007.3 |
| 20260509024527 | 74 | 58 | 0.0 | 6.1 | 0.00 | 0.00 | 0.01 | 92 | 1008.5 |
| 20260509024323 | 74 | 42 | 1.7 | 5.2 | 0.00 | 0.01 | 0.01 | 92 | 1007.2 |
| 20260509024027 | 74 | 61 | 1.7 | 5.2 | 0.00 | 0.00 | 0.01 | 92 | 1008.1 |
| 20260509023527 | 74 | 44 | 2.6 | 3.5 | 0.00 | 0.00 | 0.01 | 92 | 1008.1 |
| 20260509023310 | 74 | 56 | 0.9 | 6.1 | 0.00 | 0.01 | 0.01 | 92 | 1006.9 |
| 20260509023029 | 74 | 69 | 1.7 | 2.6 | 0.00 | 0.00 | 0.01 | 92 | 1008.1 |
| 20260509022805 | 74 | 59 | 0.9 | 6.1 | 0.00 | 0.01 | 0.01 | 92 | 1006.9 |
| 20260509022526 | 74 | 74 | 0.0 | 6.1 | 0.00 | 0.00 | 0.01 | 92 | 1008.1 |
| 20260509022259 | 74 | 47 | 1.7 | 7.0 | 0.00 | 0.01 | 0.01 | 92 | 1006.8 |
| 20260509022027 | 74 | 90 | 1.7 | 2.6 | 0.00 | 0.00 | 0.01 | 92 | 1008.1 |
| 20260509021753 | 74 | 49 | 1.7 | 7.0 | 0.00 | 0.01 | 0.01 | 92 | 1006.8 |
| 20260509021527 | 74 | 86 | 0.9 | 7.0 | 0.00 | 0.00 | 0.01 | 91 | 1007.8 |
| 20260509021247 | 74 | 88 | 1.7 | 7.0 | 0.00 | 0.01 | 0.01 | 91 | 1006.5 |
| 20260509021025 | 74 | 78 | 1.7 | 4.3 | 0.00 | 0.00 | 0.01 | 91 | 1007.5 |
| 20260509020741 | 74 | 55 | 1.7 | 7.0 | 0.00 | 0.01 | 0.01 | 91 | 1006.3 |
| 20260509020526 | 74 | 48 | 0.9 | 7.0 | 0.00 | 0.00 | 0.01 | 91 | 1007.5 |
| 20260509020026 | 74 | 69 | 1.7 | 2.6 | 0.00 | 0.00 | 0.01 | 91 | 1007.5 |
| 20260509015728 | 74 | 76 | 2.6 | 7.8 | 0.00 | 0.01 | 0.01 | 91 | 1006.4 |
| 20260509015526 | 74 | 82 | 1.7 | 3.5 | 0.00 | 0.00 | 0.01 | 91 | 1007.5 |
| 20260509015222 | 74 | 67 | 2.6 | 7.8 | 0.00 | 0.01 | 0.01 | 91 | 1006.4 |
| 20260509015025 | 74 | 71 | 4.3 | 4.3 | 0.00 | 0.00 | 0.01 | 91 | 1007.5 |
| 20260509014526 | 74 | 76 | 0.9 | 4.3 | 0.00 | 0.00 | 0.01 | 91 | 1007.5 |
| 20260509014211 | 74 | 59 | 2.6 | 7.0 | 0.00 | 0.01 | 0.01 | 91 | 1006.4 |
| 20260509014026 | 75 | 55 | 2.6 | 3.5 | 0.00 | 0.00 | 0.01 | 91 | 1007.5 |
| 20260509013705 | 74 | 35 | 1.7 | 4.3 | 0.00 | 0.01 | 0.01 | 91 | 1006.5 |
| 20260509013524 | 75 | 67 | 1.7 | 4.3 | 0.00 | 0.00 | 0.01 | 91 | 1007.8 |
| 20260509013159 | 74 | 52 | 1.7 | 5.2 | 0.00 | 0.01 | 0.01 | 91 | 1006.3 |
| 20260509013024 | 75 | 63 | 0.9 | 3.5 | 0.00 | 0.00 | 0.01 | 91 | 1007.5 |
| 20260509012653 | 74 | 74 | 1.7 | 5.2 | 0.00 | 0.01 | 0.01 | 91 | 1006.1 |
| 20260509012526 | 75 | 42 | 3.5 | 3.5 | 0.00 | 0.00 | 0.01 | 91 | 1007.5 |
| 20260509012147 | 75 | 56 | 0.9 | 3.5 | 0.00 | 0.01 | 0.01 | 91 | 1006.3 |
| 20260509012025 | 75 | 62 | 0.9 | 0.9 | 0.00 | 0.00 | 0.01 | 91 | 1007.5 |
| 20260509011640 | 75 | 63 | 0.9 | 5.2 | 0.00 | 0.01 | 0.01 | 91 | 1006.3 |
| 20260509011525 | 75 | 92 | 0.9 | 2.6 | 0.00 | 0.00 | 0.01 | 91 | 1007.5 |
| 20260509011135 | 75 | 41 | 0.9 | 5.2 | 0.00 | 0.01 | 0.01 | 91 | 1006.3 |
| 20260509011026 | 75 | 49 | 1.7 | 4.3 | 0.00 | 0.00 | 0.01 | 91 | 1007.5 |
| 20260509010629 | 75 | 85 | 0.9 | 3.5 | 0.00 | 0.01 | 0.01 | 90 | 1006.2 |
| 20260509010524 | 75 | 71 | 0.9 | 1.7 | 0.00 | 0.00 | 0.01 | 91 | 1007.5 |
| 20260509010123 | 75 | 100 | 1.7 | 6.1 | 0.00 | 0.01 | 0.01 | 91 | 1006.1 |
| 20260509010023 | 75 | 42 | 0.0 | 1.7 | 0.00 | 0.00 | 0.01 | 91 | 1007.5 |
| 20260509005524 | 75 | 62 | 2.6 | 4.3 | 0.00 | 0.00 | 0.01 | 90 | 1007.1 |
| 20260509005111 | 75 | 50 | 1.7 | 7.0 | 0.00 | 0.01 | 0.01 | 90 | 1005.8 |
| 20260509005023 | 75 | 45 | 4.3 | 7.0 | 0.00 | 0.00 | 0.01 | 90 | 1007.1 |
| 20260509004604 | 75 | 69 | 1.7 | 4.3 | 0.00 | 0.01 | 0.01 | 90 | 1006.2 |
| 20260509004522 | 75 | 85 | 0.9 | 4.3 | 0.00 | 0.00 | 0.01 | 90 | 1007.5 |
| 20260509004058 | 75 | 46 | 0.9 | 3.5 | 0.00 | 0.01 | 0.01 | 90 | 1006.2 |
| 20260509004023 | 75 | 83 | 2.6 | 3.5 | 0.00 | 0.00 | 0.01 | 90 | 1007.5 |
| 20260509003553 | 75 | 67 | 0.9 | 3.5 | 0.00 | 0.01 | 0.01 | 90 | 1006.2 |
| 20260509003523 | 75 | 64 | 0.0 | 1.7 | 0.00 | 0.00 | 0.01 | 90 | 1007.5 |
| 20260509003047 | 75 | 54 | 1.7 | 5.2 | 0.00 | 0.01 | 0.01 | 90 | 1006.1 |
| 20260509003026 | 75 | 51 | 0.9 | 2.6 | 0.00 | 0.00 | 0.01 | 90 | 1007.1 |
| 20260509002541 | 75 | 45 | 1.7 | 5.2 | 0.00 | 0.01 | 0.01 | 90 | 1006.2 |
| 20260509002522 | 75 | 74 | 0.9 | 5.2 | 0.00 | 0.00 | 0.01 | 90 | 1007.5 |
| 20260509002035 | 75 | 58 | 1.7 | 5.2 | 0.00 | 0.01 | 0.01 | 90 | 1005.9 |
| 20260509002024 | 75 | 71 | 1.7 | 4.3 | 0.00 | 0.00 | 0.01 | 90 | 1007.1 |
| 20260509001522 | 75 | 57 | 5.2 | 5.2 | 0.00 | 0.00 | 0.01 | 90 | 1007.5 |
| 20260509001024 | 75 | 51 | 1.7 | 2.6 | 0.00 | 0.00 | 0.01 | 90 | 1007.5 |
| 20260509000523 | 75 | 52 | 1.7 | 4.3 | 0.00 | 0.00 | 0.01 | 90 | 1007.1 |
| 20260509000518 | 75 | 52 | 1.7 | 5.2 | 0.00 | 0.01 | 0.01 | 90 | 1005.9 |
| 20260509000024 | 75 | 80 | 0.9 | 1.7 | 0.00 | 0.00 | 0.01 | 90 | 1007.1 |
| 20260509000011 | 75 | 80 | 1.7 | 5.2 | 0.00 | 0.01 | 0.01 | 90 | 1005.9 |
| 20260508235523 | 75 | 58 | 0.0 | 3.5 | 0.00 | 0.00 | 0.01 | 89 | 1007.5 |
| 20260508235506 | 75 | 58 | 1.7 | 4.3 | 0.00 | 0.01 | 0.01 | 89 | 1006.1 |
| 20260508235022 | 75 | 118 | 3.5 | 4.3 | 0.00 | 0.00 | 0.01 | 89 | 1007.1 |
| 20260508235000 | 75 | 118 | 1.7 | 7.0 | 0.00 | 0.01 | 0.01 | 89 | 1005.9 |
| 20260508234523 | 75 | 53 | 3.5 | 4.3 | 0.00 | 0.00 | 0.01 | 89 | 1006.8 |
| 20260508234457 | 75 | 95 | 1.7 | 7.0 | 0.00 | 0.01 | 0.01 | 89 | 1005.7 |
| 20260508234023 | 75 | 63 | 0.0 | 2.6 | 0.00 | 0.00 | 0.01 | 90 | 1007.1 |
| 20260508233957 | 75 | 63 | 1.7 | 7.0 | 0.00 | 0.01 | 0.01 | 90 | 1005.9 |
| 20260508233520 | 75 | 71 | 2.6 | 4.3 | 0.00 | 0.00 | 0.01 | 89 | 1007.1 |
| 20260508233455 | 75 | 57 | 1.7 | 7.0 | 0.00 | 0.01 | 0.01 | 89 | 1005.9 |
| 20260508233021 | 75 | 134 | 0.9 | 7.0 | 0.00 | 0.00 | 0.01 | 90 | 1007.1 |
| 20260508232955 | 75 | 52 | 1.7 | 7.0 | 0.00 | 0.01 | 0.01 | 89 | 1006.1 |
| 20260508232523 | 75 | 61 | 0.9 | 2.6 | 0.00 | 0.00 | 0.01 | 90 | 1007.5 |
| 20260508232455 | 75 | 61 | 2.6 | 7.0 | 0.00 | 0.01 | 0.01 | 90 | 1006.3 |
| 20260508232020 | 75 | 76 | 2.6 | 7.0 | 0.00 | 0.00 | 0.01 | 90 | 1007.1 |
| 20260508231958 | 75 | 36 | 2.6 | 9.6 | 0.00 | 0.01 | 0.01 | 90 | 1006.0 |
| 20260508231521 | 75 | 55 | 4.3 | 5.2 | 0.00 | 0.00 | 0.01 | 89 | 1006.8 |
| 20260508231455 | 75 | 54 | 2.6 | 9.6 | 0.00 | 0.01 | 0.01 | 89 | 1005.8 |
| 20260508231021 | 75 | 94 | 2.6 | 4.3 | 0.00 | 0.00 | 0.01 | 90 | 1007.1 |
| 20260508230955 | 75 | 79 | 2.6 | 7.0 | 0.00 | 0.01 | 0.01 | 90 | 1005.9 |
| 20260508230521 | 75 | 62 | 0.9 | 4.3 | 0.00 | 0.00 | 0.01 | 89 | 1007.1 |
| 20260508230455 | 75 | 68 | 2.6 | 6.1 | 0.00 | 0.01 | 0.01 | 89 | 1006.0 |
| 20260508230020 | 75 | 46 | 1.7 | 5.2 | 0.00 | 0.00 | 0.01 | 89 | 1007.1 |
| 20260508225955 | 75 | 48 | 2.6 | 6.1 | 0.00 | 0.01 | 0.01 | 89 | 1005.9 |
| 20260508225520 | 76 | 73 | 0.0 | 3.5 | 0.00 | 0.00 | 0.01 | 89 | 1007.1 |
| 20260508225457 | 76 | 73 | 2.6 | 7.8 | 0.00 | 0.01 | 0.01 | 89 | 1005.9 |
| 20260508225018 | 76 | 84 | 4.3 | 7.8 | 0.00 | 0.00 | 0.01 | 89 | 1006.8 |
| 20260508224955 | 76 | 84 | 2.6 | 7.8 | 0.00 | 0.01 | 0.01 | 89 | 1005.7 |
| 20260508224520 | 76 | 105 | 2.6 | 5.2 | 0.00 | 0.00 | 0.01 | 89 | 1006.8 |
| 20260508224454 | 76 | 83 | 1.7 | 6.1 | 0.00 | 0.01 | 0.01 | 89 | 1005.8 |
| 20260508224018 | 76 | 79 | 1.7 | 2.6 | 0.00 | 0.00 | 0.01 | 89 | 1007.1 |
| 20260508223955 | 76 | 75 | 1.7 | 7.0 | 0.00 | 0.01 | 0.01 | 89 | 1005.9 |
| 20260508223519 | 76 | 59 | 0.0 | 1.7 | 0.00 | 0.00 | 0.01 | 89 | 1007.5 |
| 20260508223453 | 76 | 63 | 1.7 | 7.0 | 0.00 | 0.01 | 0.01 | 89 | 1006.1 |
| 20260508223019 | 76 | 74 | 2.6 | 5.2 | 0.00 | 0.00 | 0.01 | 88 | 1007.1 |
| 20260508222447 | 76 | 67 | 1.7 | 6.1 | 0.00 | 0.01 | 0.01 | 89 | 1006.0 |
| 20260508222441 | 76 | 70 | 1.7 | 6.1 | 0.00 | 0.00 | 0.01 | 89 | 1007.1 |
| 20260508221941 | 76 | 74 | 2.6 | 7.8 | 0.00 | 0.01 | 0.01 | 89 | 1006.0 |
| 20260508221441 | 76 | 76 | 2.6 | 5.2 | 0.00 | 0.00 | 0.01 | 88 | 1007.5 |
| 20260508221434 | 76 | 80 | 1.7 | 5.2 | 0.00 | 0.01 | 0.01 | 88 | 1006.2 |
| 20260508220940 | 76 | 51 | 1.7 | 3.5 | 0.00 | 0.00 | 0.01 | 89 | 1007.5 |
| 20260508220929 | 76 | 51 | 1.7 | 7.8 | 0.00 | 0.01 | 0.01 | 89 | 1006.2 |
| 20260508220437 | 76 | 53 | 2.6 | 3.5 | 0.00 | 0.00 | 0.01 | 88 | 1007.5 |
| 20260508220423 | 76 | 53 | 0.9 | 3.5 | 0.00 | 0.01 | 0.01 | 88 | 1006.4 |
| 20260508220019 | 76 | 65 | 1.7 | 1.7 | 0.00 | 0.00 | 0.01 | 88 | 1007.5 |
| 20260508215517 | 76 | 98 | 1.7 | 3.5 | 0.00 | 0.00 | 0.01 | 88 | 1007.8 |
| 20260508215410 | 76 | 61 | 1.7 | 6.1 | 0.00 | 0.01 | 0.01 | 88 | 1006.5 |
| 20260508215017 | 77 | 80 | 2.6 | 3.5 | 0.00 | 0.00 | 0.01 | 87 | 1007.8 |
| 20260508214904 | 76 | 67 | 0.9 | 3.5 | 0.00 | 0.01 | 0.01 | 87 | 1006.5 |
| 20260508214516 | 76 | 81 | 0.0 | 1.7 | 0.00 | 0.00 | 0.01 | 88 | 1007.8 |
| 20260508214359 | 76 | 128 | 0.9 | 3.5 | 0.00 | 0.01 | 0.01 | 89 | 1006.5 |
| 20260508214017 | 76 | 131 | 2.6 | 3.5 | 0.00 | 0.00 | 0.01 | 88 | 1007.8 |
| 20260508213852 | 76 | 25 | 1.7 | 6.1 | 0.00 | 0.01 | 0.01 | 88 | 1006.6 |
| 20260508213518 | 76 | 55 | 0.9 | 3.5 | 0.00 | 0.00 | 0.01 | 88 | 1007.5 |
| 20260508213347 | 76 | 65 | 1.7 | 6.1 | 0.00 | 0.01 | 0.01 | 88 | 1006.4 |
| 20260508213015 | 76 | 105 | 1.7 | 3.5 | 0.00 | 0.00 | 0.01 | 88 | 1007.8 |
| 20260508212841 | 76 | 58 | 1.7 | 5.2 | 0.00 | 0.01 | 0.01 | 88 | 1006.7 |
| 20260508212516 | 75 | 41 | 0.9 | 2.6 | 0.00 | 0.00 | 0.01 | 88 | 1008.1 |
| 20260508212335 | 75 | 59 | 1.7 | 7.8 | 0.00 | 0.01 | 0.01 | 88 | 1006.9 |
| 20260508212017 | 75 | 66 | 0.9 | 6.1 | 0.00 | 0.00 | 0.01 | 88 | 1008.1 |
| 20260508211829 | 76 | 38 | 1.7 | 7.8 | 0.00 | 0.01 | 0.01 | 88 | 1007.0 |
| 20260508211517 | 76 | 84 | 1.7 | 3.5 | 0.00 | 0.00 | 0.01 | 88 | 1008.1 |
| 20260508211015 | 76 | 71 | 2.6 | 2.6 | 0.00 | 0.00 | 0.01 | 88 | 1008.1 |
| 20260508210816 | 76 | 73 | 1.7 | 5.2 | 0.00 | 0.01 | 0.01 | 88 | 1007.0 |
| 20260508210515 | 76 | 67 | 4.3 | 5.2 | 0.00 | 0.00 | 0.01 | 88 | 1008.1 |
| 20260508210310 | 76 | 55 | 2.6 | 8.7 | 0.00 | 0.01 | 0.01 | 88 | 1007.1 |
| 20260508210015 | 75 | 61 | 1.7 | 2.6 | 0.00 | 0.00 | 0.01 | 88 | 1008.1 |
| 20260508205804 | 76 | 103 | 2.6 | 8.7 | 0.00 | 0.01 | 0.01 | 88 | 1007.0 |
| 20260508205515 | 76 | 55 | 1.7 | 5.2 | 0.00 | 0.00 | 0.01 | 88 | 1008.1 |
| 20260508205300 | 76 | 57 | 2.6 | 7.8 | 0.00 | 0.01 | 0.01 | 88 | 1007.0 |
| 20260508205014 | 76 | 73 | 2.6 | 3.5 | 0.00 | 0.00 | 0.01 | 88 | 1008.5 |
| 20260508204753 | 76 | 79 | 1.7 | 5.2 | 0.00 | 0.01 | 0.01 | 88 | 1007.2 |
| 20260508204514 | 75 | 62 | 1.7 | 4.3 | 0.00 | 0.00 | 0.01 | 88 | 1008.5 |
| 20260508204246 | 76 | 348 | 2.6 | 7.8 | 0.00 | 0.01 | 0.01 | 87 | 1007.2 |
| 20260508204014 | 76 | 14 | 3.5 | 5.2 | 0.00 | 0.00 | 0.01 | 87 | 1008.5 |
| 20260508203741 | 76 | 337 | 2.6 | 7.8 | 0.00 | 0.01 | 0.01 | 87 | 1007.3 |
| 20260508203514 | 76 | 53 | 3.5 | 4.3 | 0.00 | 0.00 | 0.01 | 88 | 1008.5 |
| 20260508203234 | 75 | 55 | 2.6 | 8.7 | 0.00 | 0.01 | 0.01 | 88 | 1007.4 |
| 20260508203014 | 75 | 77 | 1.7 | 3.5 | 0.00 | 0.00 | 0.01 | 88 | 1008.5 |
| 20260508202514 | 75 | 62 | 4.3 | 5.2 | 0.00 | 0.00 | 0.01 | 88 | 1008.8 |
| 20260508202223 | 75 | 68 | 1.7 | 7.8 | 0.00 | 0.01 | 0.01 | 88 | 1007.6 |
| 20260508202014 | 75 | 28 | 0.0 | 3.5 | 0.00 | 0.00 | 0.01 | 88 | 1008.8 |
| 20260508201717 | 75 | 15 | 1.7 | 7.8 | 0.00 | 0.01 | 0.01 | 88 | 1007.7 |
| 20260508201514 | 75 | 348 | 0.9 | 7.8 | 0.00 | 0.00 | 0.01 | 88 | 1008.8 |
| 20260508201211 | 75 | 76 | 1.7 | 5.2 | 0.00 | 0.01 | 0.01 | 88 | 1007.8 |
| 20260508201012 | 75 | 24 | 1.7 | 5.2 | 0.00 | 0.00 | 0.01 | 88 | 1009.1 |
| 20260508200704 | 75 | 25 | 0.9 | 5.2 | 0.00 | 0.01 | 0.01 | 88 | 1007.9 |
| 20260508200514 | 75 | 348 | 1.7 | 5.2 | 0.00 | 0.00 | 0.01 | 88 | 1009.1 |
| 20260508200159 | 75 | 332 | 1.7 | 5.2 | 0.00 | 0.01 | 0.01 | 88 | 1007.8 |
| 20260508200012 | 75 | 46 | 0.9 | 1.7 | 0.00 | 0.00 | 0.01 | 88 | 1009.1 |
| 20260508195655 | 75 | 37 | 2.6 | 6.1 | 0.00 | 0.01 | 0.01 | 88 | 1007.8 |
| 20260508195513 | 75 | 61 | 0.9 | 4.3 | 0.00 | 0.00 | 0.01 | 88 | 1009.1 |
| 20260508195148 | 74 | 70 | 2.6 | 7.8 | 0.00 | 0.01 | 0.01 | 89 | 1007.9 |
| 20260508195013 | 75 | 61 | 1.7 | 6.1 | 0.00 | 0.00 | 0.01 | 88 | 1009.1 |
| 20260508194643 | 74 | 64 | 2.6 | 7.8 | 0.00 | 0.01 | 0.01 | 88 | 1007.9 |
| 20260508194538 | 75 | 55 | 2.6 | 3.5 | 0.00 | 0.00 | 0.01 | 89 | 1009.1 |
| 20260508194136 | 74 | 17 | 1.7 | 8.7 | 0.00 | 0.01 | 0.01 | 89 | 1008.0 |
| 20260508194036 | 75 | 343 | 1.7 | 4.3 | 0.00 | 0.00 | 0.01 | 89 | 1009.1 |
| 20260508193540 | 75 | 62 | 0.9 | 2.6 | 0.00 | 0.00 | 0.01 | 89 | 1009.1 |
| 20260508193124 | 74 | 29 | 1.7 | 7.8 | 0.00 | 0.01 | 0.01 | 89 | 1008.0 |
| 20260508193036 | 74 | 66 | 0.0 | 7.8 | 0.00 | 0.00 | 0.01 | 89 | 1009.1 |
| 20260508192617 | 74 | 36 | 1.7 | 5.2 | 0.00 | 0.01 | 0.01 | 90 | 1008.2 |
| 20260508192540 | 74 | 104 | 2.6 | 3.5 | 0.00 | 0.00 | 0.01 | 90 | 1009.1 |
| 20260508192112 | 74 | 325 | 2.6 | 7.0 | 0.00 | 0.01 | 0.01 | 89 | 1008.1 |
| 20260508192040 | 74 | 26 | 3.5 | 5.2 | 0.00 | 0.00 | 0.01 | 89 | 1009.5 |
| 20260508191609 | 74 | 67 | 3.5 | 5.2 | 0.00 | 0.00 | 0.01 | 90 | 1009.1 |
| 20260508191606 | 74 | 71 | 2.6 | 7.8 | 0.00 | 0.01 | 0.01 | 90 | 1008.2 |
| 20260508191114 | 74 | 64 | 7.8 | 7.8 | 0.00 | 0.00 | 0.01 | 90 | 1009.5 |
| 20260508190611 | 73 | 50 | 2.6 | 2.6 | 0.00 | 0.00 | 0.01 | 89 | 1009.5 |
| 20260508190554 | 73 | 50 | 1.7 | 5.2 | 0.00 | 0.01 | 0.01 | 89 | 1008.5 |
| 20260508190111 | 73 | 21 | 0.0 | 2.6 | 0.00 | 0.00 | 0.01 | 90 | 1009.5 |
| 20260508190048 | 73 | 21 | 1.7 | 5.2 | 0.00 | 0.01 | 0.01 | 90 | 1008.5 |
| 20260508185615 | 74 | 342 | 3.5 | 4.3 | 0.00 | 0.00 | 0.01 | 89 | 1009.5 |
| 20260508185542 | 74 | 342 | 2.6 | 5.2 | 0.00 | 0.01 | 0.01 | 89 | 1008.3 |
| 20260508185111 | 73 | 91 | 3.5 | 4.3 | 0.00 | 0.00 | 0.01 | 89 | 1009.5 |
| 20260508185036 | 73 | 59 | 2.6 | 7.0 | 0.00 | 0.01 | 0.01 | 89 | 1008.3 |
| 20260508184614 | 73 | 86 | 1.7 | 5.2 | 0.00 | 0.00 | 0.01 | 89 | 1009.5 |
| 20260508184530 | 73 | 51 | 1.7 | 7.0 | 0.00 | 0.01 | 0.01 | 90 | 1008.3 |
| 20260508184139 | 73 | 32 | 0.0 | 3.5 | 0.00 | 0.00 | 0.01 | 90 | 1009.8 |
| 20260508183642 | 73 | 106 | 0.0 | 0.9 | 0.00 | 0.00 | 0.01 | 91 | 1009.8 |
| 20260508183518 | 73 | 51 | 2.6 | 7.0 | 0.00 | 0.01 | 0.01 | 90 | 1008.6 |
| 20260508183140 | 73 | 59 | 1.7 | 7.0 | 0.00 | 0.00 | 0.01 | 90 | 1009.8 |
| 20260508183012 | 73 | 30 | 1.7 | 7.0 | 0.00 | 0.01 | 0.01 | 90 | 1008.7 |
| 20260508182711 | 73 | 321 | 0.9 | 6.1 | 0.00 | 0.00 | 0.01 | 90 | 1010.2 |
| 20260508182509 | 73 | 55 | 1.7 | 5.2 | 0.00 | 0.01 | 0.01 | 91 | 1008.8 |
| 20260508182227 | 72 | 61 | 1.7 | 3.5 | 0.00 | 0.00 | 0.01 | 91 | 1010.2 |
| 20260508182009 | 72 | 128 | 1.7 | 5.2 | 0.00 | 0.01 | 0.01 | 91 | 1008.9 |
| 20260508181711 | 72 | 68 | 1.7 | 3.5 | 0.00 | 0.00 | 0.01 | 91 | 1010.2 |
| 20260508181508 | 72 | 78 | 1.7 | 5.2 | 0.00 | 0.01 | 0.01 | 91 | 1009.2 |
| 20260508181213 | 72 | 58 | 0.9 | 4.3 | 0.00 | 0.00 | 0.01 | 91 | 1010.5 |
| 20260508181009 | 72 | 55 | 1.7 | 7.0 | 0.00 | 0.01 | 0.01 | 92 | 1009.2 |
| 20260508180711 | 71 | 67 | 0.9 | 4.3 | 0.00 | 0.00 | 0.01 | 91 | 1010.2 |
| 20260508180508 | 71 | 62 | 1.7 | 7.0 | 0.00 | 0.01 | 0.01 | 91 | 1009.3 |
| 20260508180211 | 71 | 65 | 0.9 | 3.5 | 0.00 | 0.00 | 0.01 | 91 | 1010.5 |
| 20260508175710 | 71 | 42 | 0.0 | 3.5 | 0.00 | 0.00 | 0.01 | 91 | 1010.5 |
| 20260508175507 | 71 | 66 | 1.7 | 5.2 | 0.00 | 0.01 | 0.01 | 91 | 1009.3 |
| 20260508175209 | 71 | 74 | 0.9 | 4.3 | 0.00 | 0.00 | 0.01 | 91 | 1010.5 |
| 20260508175007 | 71 | 60 | 0.9 | 5.2 | 0.00 | 0.01 | 0.01 | 91 | 1009.3 |
| 20260508174711 | 71 | 57 | 2.6 | 2.6 | 0.00 | 0.00 | 0.01 | 91 | 1010.5 |
| 20260508174507 | 71 | 64 | 0.9 | 3.5 | 0.00 | 0.01 | 0.01 | 91 | 1009.4 |
| 20260508174212 | 71 | 38 | 0.9 | 1.7 | 0.00 | 0.00 | 0.01 | 91 | 1010.8 |
| 20260508174006 | 71 | 37 | 0.9 | 3.5 | 0.00 | 0.01 | 0.01 | 91 | 1009.5 |
| 20260508173712 | 71 | 68 | 0.0 | 0.9 | 0.00 | 0.00 | 0.01 | 91 | 1010.5 |
| 20260508173509 | 71 | 71 | 0.9 | 3.5 | 0.00 | 0.01 | 0.01 | 91 | 1009.4 |
| 20260508173211 | 70 | 68 | 2.6 | 3.5 | 0.00 | 0.00 | 0.01 | 91 | 1010.5 |
| 20260508173007 | 70 | 57 | 0.9 | 5.2 | 0.00 | 0.01 | 0.01 | 91 | 1009.5 |
| 20260508172720 | 70 | 14 | 0.0 | 0.9 | 0.00 | 0.00 | 0.01 | 91 | 1010.5 |
| 20260508172507 | 70 | 55 | 2.6 | 7.8 | 0.00 | 0.01 | 0.01 | 91 | 1009.4 |
| 20260508172221 | 70 | 59 | 0.9 | 2.6 | 0.00 | 0.00 | 0.01 | 91 | 1010.5 |
| 20260508172007 | 70 | 60 | 2.6 | 7.8 | 0.00 | 0.01 | 0.01 | 91 | 1009.4 |
| 20260508171725 | 70 | 66 | 3.5 | 7.8 | 0.00 | 0.00 | 0.01 | 91 | 1010.5 |
| 20260508171505 | 70 | 48 | 0.9 | 3.5 | 0.00 | 0.01 | 0.01 | 90 | 1009.5 |
| 20260508171221 | 70 | 19 | 2.6 | 2.6 | 0.00 | 0.00 | 0.01 | 91 | 1010.8 |
| 20260508171004 | 70 | 69 | 0.0 | 3.5 | 0.00 | 0.01 | 0.01 | 91 | 1009.5 |
| 20260508170723 | 70 | 74 | 1.7 | 1.7 | 0.00 | 0.00 | 0.01 | 91 | 1010.8 |
| 20260508170223 | 69 | 9 | 0.0 | 0.0 | 0.00 | 0.00 | 0.01 | 90 | 1011.2 |
| 20260508170002 | 69 | 342 | 0.9 | 4.3 | 0.00 | 0.01 | 0.01 | 90 | 1009.9 |
| 20260508165720 | 69 | 55 | 0.0 | 4.3 | 0.00 | 0.00 | 0.01 | 90 | 1010.8 |
| 20260508165457 | 69 | 324 | 0.9 | 4.3 | 0.00 | 0.01 | 0.01 | 90 | 1009.7 |
| 20260508165220 | 69 | 5 | 0.0 | 2.6 | 0.00 | 0.00 | 0.01 | 90 | 1010.8 |
| 20260508164951 | 69 | 18 | 1.7 | 4.3 | 0.00 | 0.01 | 0.01 | 90 | 1009.8 |
| 20260508164720 | 69 | 56 | 0.9 | 4.3 | 0.00 | 0.00 | 0.01 | 90 | 1011.2 |
| 20260508164444 | 69 | 58 | 1.7 | 4.3 | 0.00 | 0.01 | 0.01 | 90 | 1009.9 |
| 20260508164218 | 69 | 30 | 2.6 | 4.3 | 0.00 | 0.00 | 0.01 | 90 | 1010.8 |
| 20260508163720 | 69 | 342 | 0.9 | 2.6 | 0.00 | 0.00 | 0.01 | 90 | 1011.2 |
| 20260508163219 | 69 | 19 | 1.7 | 3.5 | 0.00 | 0.00 | 0.01 | 89 | 1011.2 |
| 20260508162927 | 69 | 348 | 1.7 | 7.0 | 0.00 | 0.01 | 0.01 | 89 | 1009.9 |
| 20260508162720 | 69 | 348 | 1.7 | 4.3 | 0.00 | 0.00 | 0.01 | 89 | 1010.8 |
| 20260508162420 | 69 | 24 | 0.9 | 5.2 | 0.00 | 0.01 | 0.01 | 90 | 1009.8 |
| 20260508162219 | 69 | 21 | 0.0 | 5.2 | 0.00 | 0.00 | 0.01 | 90 | 1010.8 |
| 20260508161914 | 69 | 15 | 0.9 | 7.0 | 0.00 | 0.01 | 0.01 | 90 | 1009.8 |
| 20260508161719 | 69 | 57 | 0.0 | 1.7 | 0.00 | 0.00 | 0.01 | 90 | 1011.2 |
| 20260508161415 | 69 | 70 | 1.7 | 7.0 | 0.00 | 0.01 | 0.01 | 90 | 1010.1 |
| 20260508161219 | 69 | 324 | 0.0 | 2.6 | 0.00 | 0.00 | 0.01 | 90 | 1011.2 |
| 20260508160902 | 69 | 14 | 1.7 | 7.8 | 0.00 | 0.01 | 0.01 | 90 | 1010.2 |
| 20260508160718 | 69 | 168 | 0.0 | 4.3 | 0.00 | 0.00 | 0.01 | 91 | 1011.2 |
| 20260508160356 | 69 | 355 | 1.7 | 7.8 | 0.00 | 0.01 | 0.01 | 91 | 1009.9 |
| 20260508160217 | 69 | 25 | 1.7 | 6.1 | 0.00 | 0.00 | 0.01 | 90 | 1010.8 |
| 20260508155853 | 69 | 316 | 1.7 | 8.7 | 0.00 | 0.01 | 0.01 | 91 | 1009.9 |
| 20260508155720 | 69 | 74 | 1.7 | 4.3 | 0.00 | 0.00 | 0.01 | 90 | 1011.2 |
| 20260508155353 | 69 | 16 | 1.7 | 8.7 | 0.00 | 0.01 | 0.01 | 90 | 1010.1 |
| 20260508155218 | 69 | 26 | 0.9 | 4.3 | 0.00 | 0.00 | 0.01 | 91 | 1011.2 |
| 20260508154853 | 69 | 321 | 1.7 | 3.5 | 0.00 | 0.01 | 0.01 | 91 | 1010.1 |
| 20260508154717 | 69 | 14 | 0.9 | 3.5 | 0.00 | 0.00 | 0.01 | 91 | 1011.2 |
| 20260508154354 | 69 | 29 | 0.9 | 3.5 | 0.00 | 0.01 | 0.01 | 91 | 1010.1 |
| 20260508154217 | 69 | 89 | 1.7 | 1.7 | 0.00 | 0.00 | 0.01 | 91 | 1011.5 |
| 20260508153853 | 69 | 32 | 0.9 | 4.3 | 0.00 | 0.01 | 0.01 | 91 | 1010.2 |
| 20260508153716 | 69 | 86 | 0.9 | 2.6 | 0.00 | 0.00 | 0.01 | 91 | 1011.2 |
| 20260508153351 | 69 | 34 | 1.7 | 4.3 | 0.00 | 0.01 | 0.01 | 91 | 1010.1 |
| 20260508153216 | 69 | 63 | 2.6 | 3.5 | 0.00 | 0.00 | 0.01 | 91 | 1011.2 |
| 20260508152852 | 69 | 61 | 0.9 | 4.3 | 0.00 | 0.01 | 0.01 | 91 | 1010.1 |
| 20260508152718 | 69 | 61 | 0.0 | 4.3 | 0.00 | 0.00 | 0.01 | 91 | 1011.2 |
| 20260508152352 | 69 | 34 | 0.9 | 2.6 | 0.00 | 0.01 | 0.01 | 91 | 1010.3 |
| 20260508152217 | 68 | 15 | 0.9 | 1.7 | 0.00 | 0.00 | 0.01 | 92 | 1011.5 |
| 20260508151849 | 68 | 347 | 0.9 | 3.5 | 0.00 | 0.01 | 0.01 | 91 | 1010.3 |
| 20260508151715 | 68 | 30 | 1.7 | 1.7 | 0.00 | 0.00 | 0.01 | 92 | 1011.5 |
| 20260508151216 | 68 | 18 | 0.0 | 2.6 | 0.00 | 0.00 | 0.01 | 91 | 1011.5 |
| 20260508150849 | 68 | 22 | 0.9 | 3.5 | 0.00 | 0.01 | 0.01 | 91 | 1010.3 |
| 20260508150716 | 68 | 71 | 0.9 | 2.6 | 0.00 | 0.00 | 0.01 | 91 | 1011.5 |
| 20260508150347 | 68 | 43 | 0.9 | 3.5 | 0.00 | 0.01 | 0.01 | 91 | 1010.4 |
| 20260508150216 | 68 | 76 | 0.9 | 3.5 | 0.00 | 0.00 | 0.01 | 91 | 1011.9 |
| 20260508145716 | 68 | 32 | 0.0 | 0.0 | 0.00 | 0.00 | 0.01 | 91 | 1011.9 |
| 20260508145345 | 68 | 98 | 0.0 | 1.7 | 0.00 | 0.01 | 0.01 | 91 | 1010.6 |
| 20260508145215 | 68 | 29 | 0.0 | 0.0 | 0.00 | 0.00 | 0.01 | 91 | 1011.9 |
| 20260508144843 | 68 | 41 | 0.0 | 1.7 | 0.00 | 0.01 | 0.01 | 91 | 1010.7 |
| 20260508144714 | 68 | 58 | 0.0 | 0.0 | 0.00 | 0.00 | 0.01 | 91 | 1011.9 |
| 20260508144347 | 68 | 315 | 0.0 | 2.6 | 0.00 | 0.01 | 0.01 | 92 | 1010.6 |
| 20260508144213 | 68 | 25 | 0.0 | 0.9 | 0.00 | 0.00 | 0.01 | 92 | 1011.9 |
| 20260508143713 | 67 | 88 | 0.0 | 0.0 | 0.00 | 0.00 | 0.01 | 92 | 1011.5 |
| 20260508143345 | 67 | 46 | 0.9 | 3.5 | 0.00 | 0.01 | 0.01 | 92 | 1010.3 |
| 20260508143215 | 67 | 117 | 0.9 | 1.7 | 0.00 | 0.00 | 0.01 | 92 | 1011.5 |
| 20260508142839 | 67 | 42 | 0.9 | 3.5 | 0.00 | 0.01 | 0.01 | 92 | 1010.3 |
| 20260508142715 | 67 | 55 | 0.9 | 2.6 | 0.00 | 0.00 | 0.01 | 92 | 1011.5 |
| 20260508142214 | 67 | 67 | 1.7 | 1.7 | 0.00 | 0.00 | 0.01 | 92 | 1011.5 |
| 20260508141827 | 66 | 63 | 1.7 | 4.3 | 0.00 | 0.01 | 0.01 | 92 | 1010.1 |
| 20260508141716 | 66 | 53 | 1.7 | 3.5 | 0.00 | 0.00 | 0.01 | 92 | 1011.2 |
| 20260508141321 | 66 | 98 | 1.7 | 3.5 | 0.00 | 0.01 | 0.01 | 92 | 1010.0 |
| 20260508141214 | 66 | 78 | 1.7 | 3.5 | 0.00 | 0.00 | 0.01 | 92 | 1011.2 |
| 20260508140715 | 66 | 76 | 0.9 | 3.5 | 0.00 | 0.00 | 0.01 | 92 | 1011.2 |
| 20260508140213 | 66 | 92 | 0.9 | 7.0 | 0.00 | 0.00 | 0.01 | 92 | 1011.2 |
| 20260508135819 | 65 | 62 | 0.9 | 2.6 | 0.01 | 0.01 | 0.01 | 93 | 1010.1 |
| 20260508135715 | 66 | 32 | 0.0 | 2.6 | 0.00 | 0.00 | 0.01 | 93 | 1011.2 |
| 20260508135319 | 65 | 73 | 0.0 | 1.7 | 0.01 | 0.01 | 0.01 | 92 | 1010.3 |
| 20260508135212 | 66 | 49 | 0.0 | 1.7 | 0.00 | 0.00 | 0.01 | 92 | 1011.5 |
| 20260508134820 | 65 | 350 | 0.0 | 1.7 | 0.01 | 0.01 | 0.01 | 93 | 1010.2 |
| 20260508134713 | 66 | 52 | 0.0 | 0.9 | 0.00 | 0.00 | 0.01 | 93 | 1011.2 |
| 20260508134319 | 65 | 13 | 0.0 | 3.5 | 0.01 | 0.01 | 0.01 | 93 | 1010.1 |
| 20260508134212 | 66 | 355 | 0.9 | 0.9 | 0.00 | 0.00 | 0.01 | 93 | 1011.5 |
| 20260508133817 | 65 | 65 | 0.9 | 5.2 | 0.01 | 0.01 | 0.01 | 93 | 1010.2 |
| 20260508133714 | 66 | 65 | 0.0 | 0.9 | 0.00 | 0.00 | 0.01 | 93 | 1011.2 |
| 20260508133316 | 66 | 342 | 0.9 | 5.2 | 0.01 | 0.01 | 0.01 | 93 | 1010.1 |
| 20260508133214 | 66 | 62 | 1.7 | 4.3 | 0.00 | 0.00 | 0.01 | 92 | 1011.2 |
| 20260508132711 | 66 | 20 | 0.0 | 0.9 | 0.00 | 0.00 | 0.01 | 93 | 1011.5 |
| 20260508132317 | 66 | 50 | 0.0 | 2.6 | 0.01 | 0.01 | 0.01 | 93 | 1010.3 |
| 20260508132212 | 66 | 328 | 0.0 | 2.6 | 0.00 | 0.00 | 0.01 | 93 | 1011.5 |
| 20260508131713 | 66 | 61 | 0.0 | 0.9 | 0.00 | 0.00 | 0.01 | 92 | 1011.9 |
| 20260508131317 | 66 | 61 | 0.0 | 0.9 | 0.01 | 0.01 | 0.01 | 92 | 1010.7 |
| 20260508131211 | 66 | 61 | 0.0 | 0.0 | 0.00 | 0.00 | 0.01 | 92 | 1011.9 |
| 20260508130818 | 65 | 61 | 0.0 | 0.9 | 0.01 | 0.01 | 0.01 | 92 | 1010.7 |
| 20260508130713 | 66 | 61 | 0.0 | 0.9 | 0.00 | 0.00 | 0.01 | 92 | 1011.9 |
| 20260508130316 | 65 | 62 | 0.0 | 0.9 | 0.00 | 0.00 | 0.00 | 92 | 1010.7 |
| 20260508130213 | 65 | 62 | 0.0 | 0.0 | 0.00 | 0.00 | 0.00 | 92 | 1011.9 |
| 20260508125812 | 65 | 61 | 0.0 | 0.9 | 0.00 | 0.00 | 0.00 | 91 | 1010.9 |
| 20260508125710 | 65 | 61 | 0.0 | 0.0 | 0.00 | 0.00 | 0.00 | 91 | 1012.2 |
| 20260508125310 | 65 | 62 | 0.0 | 0.9 | 0.00 | 0.00 | 0.00 | 91 | 1011.0 |
| 20260508125212 | 65 | 61 | 0.0 | 0.9 | 0.00 | 0.00 | 0.00 | 91 | 1012.2 |
| 20260508124812 | 65 | 61 | 0.0 | 0.9 | 0.00 | 0.00 | 0.00 | 91 | 1011.0 |
| 20260508124713 | 65 | 61 | 0.0 | 0.0 | 0.00 | 0.00 | 0.00 | 91 | 1012.2 |
| 20260508124311 | 65 | 61 | 0.0 | 0.9 | 0.00 | 0.00 | 0.00 | 91 | 1011.2 |
| 20260508124211 | 65 | 61 | 0.0 | 0.0 | 0.00 | 0.00 | 0.00 | 91 | 1012.5 |
| 20260508123809 | 65 | 20 | 0.0 | 0.9 | 0.00 | 0.00 | 0.00 | 91 | 1011.1 |
| 20260508123712 | 65 | 20 | 0.0 | 0.9 | 0.00 | 0.00 | 0.00 | 91 | 1012.2 |
| 20260508123309 | 65 | 20 | 0.0 | 0.9 | 0.00 | 0.00 | 0.00 | 90 | 1011.1 |
| 20260508123210 | 65 | 24 | 0.0 | 0.9 | 0.00 | 0.00 | 0.00 | 90 | 1012.5 |
| 20260508122807 | 65 | 9 | 0.9 | 2.6 | 0.00 | 0.00 | 0.00 | 90 | 1011.0 |
| 20260508122715 | 65 | 9 | 0.0 | 0.9 | 0.00 | 0.00 | 0.00 | 90 | 1012.2 |
| 20260508122308 | 65 | 62 | 0.9 | 3.5 | 0.00 | 0.00 | 0.00 | 90 | 1010.7 |
| 20260508122214 | 65 | 62 | 0.9 | 2.6 | 0.00 | 0.00 | 0.00 | 89 | 1011.9 |
| 20260508121806 | 65 | 64 | 0.9 | 3.5 | 0.00 | 0.00 | 0.00 | 89 | 1010.5 |
| 20260508121712 | 65 | 73 | 3.5 | 3.5 | 0.00 | 0.00 | 0.00 | 89 | 1011.9 |
| 20260508121307 | 65 | 65 | 0.9 | 3.5 | 0.00 | 0.00 | 0.00 | 89 | 1010.5 |
| 20260508121212 | 66 | 65 | 1.7 | 2.6 | 0.00 | 0.00 | 0.00 | 88 | 1011.9 |
| 20260508120711 | 66 | 69 | 1.7 | 3.5 | 0.00 | 0.00 | 0.00 | 88 | 1011.9 |
| 20260508120305 | 66 | 65 | 0.9 | 4.3 | 0.00 | 0.00 | 0.00 | 88 | 1010.5 |
| 20260508120211 | 66 | 17 | 2.6 | 3.5 | 0.00 | 0.00 | 0.00 | 88 | 1011.9 |
| 20260508115805 | 66 | 65 | 0.9 | 4.3 | 0.00 | 0.00 | 0.00 | 88 | 1010.5 |
| 20260508115711 | 66 | 36 | 0.0 | 2.6 | 0.00 | 0.00 | 0.00 | 87 | 1011.9 |
| 20260508115306 | 66 | 10 | 0.9 | 3.5 | 0.00 | 0.00 | 0.00 | 87 | 1010.7 |
| 20260508115213 | 66 | 55 | 0.0 | 1.7 | 0.00 | 0.00 | 0.00 | 87 | 1011.9 |
| 20260508114802 | 66 | 55 | 0.9 | 4.3 | 0.00 | 0.00 | 0.00 | 87 | 1010.6 |
| 20260508114714 | 66 | 75 | 2.6 | 3.5 | 0.00 | 0.00 | 0.00 | 87 | 1011.9 |
| 20260508114302 | 66 | 42 | 1.7 | 6.1 | 0.00 | 0.00 | 0.00 | 87 | 1010.6 |
| 20260508114213 | 66 | 22 | 0.9 | 4.3 | 0.00 | 0.00 | 0.00 | 87 | 1011.9 |
| 20260508113803 | 66 | 28 | 1.7 | 6.1 | 0.00 | 0.00 | 0.00 | 87 | 1010.6 |
| 20260508113713 | 66 | 68 | 1.7 | 4.3 | 0.00 | 0.00 | 0.00 | 87 | 1011.9 |
| 20260508113305 | 67 | 61 | 1.7 | 7.0 | 0.00 | 0.00 | 0.00 | 86 | 1010.9 |
| 20260508113211 | 67 | 24 | 1.7 | 6.1 | 0.00 | 0.00 | 0.00 | 86 | 1012.2 |
| 20260508112803 | 67 | 11 | 0.9 | 7.0 | 0.00 | 0.00 | 0.00 | 87 | 1010.9 |
| 20260508112714 | 67 | 32 | 0.0 | 3.5 | 0.00 | 0.00 | 0.00 | 87 | 1012.2 |
| 20260508112306 | 67 | 53 | 1.7 | 7.0 | 0.00 | 0.00 | 0.00 | 86 | 1011.1 |
| 20260508112212 | 67 | 50 | 0.9 | 4.3 | 0.00 | 0.00 | 0.00 | 86 | 1012.2 |
| 20260508111710 | 67 | 19 | 1.7 | 7.0 | 0.00 | 0.00 | 0.00 | 86 | 1012.2 |
| 20260508111300 | 67 | 32 | 0.9 | 4.3 | 0.00 | 0.00 | 0.00 | 86 | 1011.1 |
| 20260508111211 | 67 | 46 | 1.7 | 3.5 | 0.00 | 0.00 | 0.00 | 86 | 1012.2 |
| 20260508110803 | 67 | 71 | 0.9 | 7.8 | 0.00 | 0.00 | 0.00 | 86 | 1011.2 |
| 20260508110713 | 68 | 46 | 1.7 | 4.3 | 0.00 | 0.00 | 0.00 | 85 | 1012.5 |
| 20260508110301 | 68 | 34 | 0.0 | 7.8 | 0.00 | 0.00 | 0.00 | 85 | 1011.2 |
| 20260508110145 | 68 | 338 | 0.0 | 1.7 | 0.00 | 0.00 | 0.00 | 85 | 1012.5 |
| 20260508105800 | 68 | 25 | 0.0 | 1.7 | 0.00 | 0.00 | 0.00 | 85 | 1011.2 |
| 20260508105645 | 68 | 39 | 0.0 | 0.9 | 0.00 | 0.00 | 0.00 | 85 | 1012.2 |
| 20260508105301 | 68 | 82 | 0.0 | 1.7 | 0.00 | 0.00 | 0.00 | 84 | 1011.0 |
| 20260508105147 | 68 | 319 | 0.9 | 0.9 | 0.00 | 0.00 | 0.00 | 84 | 1012.2 |
| 20260508104801 | 68 | 59 | 0.0 | 1.7 | 0.00 | 0.00 | 0.00 | 84 | 1011.0 |
| 20260508104643 | 68 | 301 | 0.0 | 0.0 | 0.00 | 0.00 | 0.00 | 84 | 1012.2 |
| 20260508104301 | 68 | 219 | 0.0 | 1.7 | 0.00 | 0.00 | 0.00 | 84 | 1010.9 |
| 20260508104147 | 68 | 27 | 0.0 | 0.9 | 0.00 | 0.00 | 0.00 | 84 | 1011.9 |
| 20260508103757 | 68 | 355 | 0.0 | 0.0 | 0.00 | 0.00 | 0.00 | 84 | 1010.5 |
| 20260508103644 | 68 | 355 | 0.0 | 0.0 | 0.00 | 0.00 | 0.00 | 84 | 1011.9 |
| 20260508103256 | 68 | 0 | 0.0 | 0.9 | 0.00 | 0.00 | 0.00 | 83 | 1010.6 |
| 20260508103145 | 68 | 0 | 0.0 | 0.0 | 0.00 | 0.00 | 0.00 | 83 | 1011.9 |
| 20260508102756 | 68 | 0 | 0.0 | 1.7 | 0.00 | 0.00 | 0.00 | 83 | 1010.4 |
| 20260508102643 | 68 | 355 | 0.0 | 0.9 | 0.00 | 0.00 | 0.00 | 83 | 1011.5 |
| 20260508102256 | 68 | 334 | 0.0 | 1.7 | 0.00 | 0.00 | 0.00 | 83 | 1010.3 |
| 20260508102143 | 68 | 335 | 0.0 | 0.9 | 0.00 | 0.00 | 0.00 | 83 | 1011.5 |
| 20260508101756 | 68 | 58 | 0.0 | 1.7 | 0.00 | 0.00 | 0.00 | 82 | 1010.2 |
| 20260508101642 | 68 | 57 | 0.0 | 0.9 | 0.00 | 0.00 | 0.00 | 83 | 1011.2 |
| 20260508101258 | 68 | 47 | 0.9 | 3.5 | 0.00 | 0.00 | 0.00 | 82 | 1009.8 |
| 20260508101144 | 68 | 75 | 0.0 | 1.7 | 0.00 | 0.00 | 0.00 | 82 | 1010.8 |
| 20260508100757 | 68 | 82 | 1.7 | 3.5 | 0.00 | 0.00 | 0.00 | 82 | 1009.9 |
| 20260508100644 | 68 | 63 | 0.9 | 3.5 | 0.00 | 0.00 | 0.00 | 82 | 1010.8 |
| 20260508100257 | 68 | 52 | 0.9 | 2.6 | 0.00 | 0.00 | 0.00 | 82 | 1009.7 |
| 20260508100145 | 68 | 79 | 0.0 | 2.6 | 0.00 | 0.00 | 0.00 | 82 | 1010.8 |
| 20260508095757 | 68 | 69 | 0.9 | 3.5 | 0.00 | 0.00 | 0.00 | 82 | 1009.7 |
| 20260508095645 | 68 | 13 | 0.9 | 0.9 | 0.00 | 0.00 | 0.00 | 82 | 1010.8 |
| 20260508095252 | 68 | 26 | 0.9 | 3.5 | 0.00 | 0.00 | 0.00 | 82 | 1009.9 |
| 20260508095144 | 68 | 46 | 0.9 | 3.5 | 0.00 | 0.00 | 0.00 | 82 | 1010.8 |
| 20260508094754 | 68 | 84 | 0.9 | 3.5 | 0.00 | 0.00 | 0.00 | 82 | 1009.8 |
| 20260508094643 | 68 | 57 | 1.7 | 3.5 | 0.00 | 0.00 | 0.00 | 82 | 1010.8 |
| 20260508094254 | 68 | 66 | 0.9 | 3.5 | 0.00 | 0.00 | 0.00 | 82 | 1009.9 |
| 20260508094143 | 68 | 44 | 1.7 | 1.7 | 0.00 | 0.00 | 0.00 | 82 | 1011.2 |
| 20260508093753 | 68 | 351 | 0.9 | 4.3 | 0.00 | 0.00 | 0.00 | 82 | 1010.2 |
| 20260508093640 | 68 | 43 | 0.9 | 1.7 | 0.00 | 0.00 | 0.00 | 82 | 1011.5 |
| 20260508093253 | 68 | 40 | 0.9 | 5.2 | 0.00 | 0.00 | 0.00 | 82 | 1010.3 |
| 20260508093143 | 68 | 25 | 0.9 | 4.3 | 0.00 | 0.00 | 0.00 | 82 | 1011.5 |
| 20260508092753 | 68 | 29 | 0.9 | 5.2 | 0.00 | 0.00 | 0.00 | 81 | 1010.6 |
| 20260508092640 | 68 | 23 | 0.9 | 3.5 | 0.00 | 0.00 | 0.00 | 82 | 1011.9 |
| 20260508092253 | 69 | 30 | 0.0 | 3.5 | 0.00 | 0.00 | 0.00 | 81 | 1010.9 |
| 20260508092142 | 69 | 43 | 1.7 | 3.5 | 0.00 | 0.00 | 0.00 | 81 | 1012.2 |
| 20260508091639 | 69 | 0 | 0.0 | 0.9 | 0.00 | 0.00 | 0.00 | 82 | 1012.5 |
| 20260508091253 | 69 | 309 | 0.0 | 0.0 | 0.00 | 0.00 | 0.00 | 82 | 1011.3 |
| 20260508091141 | 69 | 309 | 0.0 | 0.0 | 0.00 | 0.00 | 0.00 | 82 | 1012.5 |
| 20260508090750 | 69 | 309 | 0.0 | 0.0 | 0.00 | 0.00 | 0.00 | 82 | 1011.4 |
| 20260508090648 | 69 | 319 | 0.0 | 0.0 | 0.00 | 0.00 | 0.00 | 82 | 1012.5 |
| 20260508090141 | 69 | 39 | 0.0 | 0.0 | 0.00 | 0.00 | 0.00 | 82 | 1012.2 |
| 20260508085749 | 69 | 39 | 0.0 | 0.9 | 0.00 | 0.00 | 0.00 | 82 | 1010.7 |
| 20260508085641 | 69 | 39 | 0.0 | 0.9 | 0.00 | 0.00 | 0.00 | 82 | 1011.9 |
| 20260508085250 | 69 | 40 | 0.0 | 1.7 | 0.00 | 0.00 | 0.00 | 82 | 1010.4 |
| 20260508085139 | 69 | 40 | 0.0 | 0.0 | 0.00 | 0.00 | 0.00 | 82 | 1011.9 |
| 20260508084641 | 69 | 41 | 0.0 | 0.0 | 0.00 | 0.00 | 0.00 | 82 | 1011.9 |
| 20260508084248 | 69 | 41 | 0.0 | 0.0 | 0.00 | 0.00 | 0.00 | 82 | 1010.6 |
| 20260508084140 | 68 | 41 | 0.0 | 0.0 | 0.00 | 0.00 | 0.00 | 82 | 1011.9 |
| 20260508083639 | 68 | 41 | 0.0 | 0.0 | 0.00 | 0.00 | 0.00 | 82 | 1011.9 |
| 20260508083140 | 68 | 41 | 0.0 | 0.0 | 0.00 | 0.00 | 0.00 | 82 | 1011.9 |
| 20260508082748 | 68 | 41 | 0.0 | 0.9 | 0.00 | 0.00 | 0.00 | 82 | 1010.4 |
| 20260508082639 | 68 | 41 | 0.0 | 0.0 | 0.00 | 0.00 | 0.00 | 82 | 1011.5 |
| 20260508082249 | 68 | 41 | 0.0 | 0.9 | 0.00 | 0.00 | 0.00 | 82 | 1010.4 |
| 20260508082141 | 68 | 41 | 0.0 | 0.0 | 0.00 | 0.00 | 0.00 | 82 | 1011.5 |
| 20260508081641 | 68 | 40 | 0.0 | 0.0 | 0.00 | 0.00 | 0.00 | 82 | 1011.5 |
| 20260508081248 | 68 | 40 | 0.0 | 0.9 | 0.00 | 0.00 | 0.00 | 82 | 1010.2 |
| 20260508081138 | 68 | 40 | 0.0 | 0.0 | 0.00 | 0.00 | 0.00 | 82 | 1011.5 |
| 20260508080749 | 68 | 40 | 0.0 | 0.9 | 0.00 | 0.00 | 0.00 | 81 | 1010.3 |
| 20260508080637 | 68 | 44 | 0.0 | 0.9 | 0.00 | 0.00 | 0.00 | 81 | 1011.5 |
| 20260508080248 | 68 | 45 | 0.0 | 0.9 | 0.00 | 0.00 | 0.00 | 81 | 1010.5 |
| 20260508080138 | 68 | 45 | 0.0 | 0.9 | 0.00 | 0.00 | 0.00 | 81 | 1011.9 |
| 20260508075749 | 68 | 28 | 0.0 | 1.7 | 0.00 | 0.00 | 0.00 | 81 | 1010.5 |
| 20260508075640 | 68 | 30 | 0.0 | 0.9 | 0.00 | 0.00 | 0.00 | 82 | 1011.9 |
| 20260508075248 | 68 | 33 | 0.9 | 3.5 | 0.00 | 0.00 | 0.00 | 81 | 1010.4 |
| 20260508075139 | 68 | 33 | 0.0 | 1.7 | 0.00 | 0.00 | 0.00 | 81 | 1011.5 |
| 20260508074749 | 68 | 24 | 0.9 | 3.5 | 0.00 | 0.00 | 0.00 | 81 | 1010.4 |
| 20260508074640 | 68 | 65 | 0.9 | 1.7 | 0.00 | 0.00 | 0.00 | 81 | 1011.5 |
| 20260508074249 | 69 | 28 | 0.0 | 3.5 | 0.00 | 0.00 | 0.00 | 81 | 1010.6 |
| 20260508074139 | 69 | 29 | 0.9 | 1.7 | 0.00 | 0.00 | 0.00 | 81 | 1011.9 |
| 20260508073749 | 69 | 26 | 0.0 | 0.9 | 0.00 | 0.00 | 0.00 | 81 | 1010.8 |
| 20260508073637 | 69 | 26 | 0.0 | 0.0 | 0.00 | 0.00 | 0.00 | 81 | 1011.9 |
| 20260508073250 | 69 | 27 | 0.0 | 0.9 | 0.00 | 0.00 | 0.00 | 81 | 1010.6 |
| 20260508073137 | 69 | 24 | 0.0 | 0.0 | 0.00 | 0.00 | 0.00 | 81 | 1011.9 |
| 20260508072749 | 69 | 17 | 0.0 | 0.9 | 0.00 | 0.00 | 0.00 | 81 | 1010.7 |
| 20260508072635 | 69 | 67 | 0.0 | 0.9 | 0.00 | 0.00 | 0.00 | 81 | 1011.9 |
| 20260508072248 | 68 | 71 | 0.0 | 0.9 | 0.00 | 0.00 | 0.00 | 81 | 1010.8 |
| 20260508072137 | 68 | 70 | 0.0 | 0.9 | 0.00 | 0.00 | 0.00 | 81 | 1012.2 |
| 20260508071749 | 69 | 71 | 0.0 | 0.9 | 0.00 | 0.00 | 0.00 | 81 | 1011.0 |
| 20260508071638 | 69 | 71 | 0.0 | 0.0 | 0.00 | 0.00 | 0.00 | 81 | 1012.2 |
| 20260508071138 | 69 | 71 | 0.0 | 0.0 | 0.00 | 0.00 | 0.00 | 81 | 1012.5 |
| 20260508070748 | 69 | 64 | 0.9 | 3.5 | 0.00 | 0.00 | 0.00 | 81 | 1011.2 |
| 20260508070637 | 69 | 57 | 0.0 | 0.0 | 0.00 | 0.00 | 0.00 | 81 | 1012.5 |
| 20260508070249 | 69 | 40 | 0.9 | 4.3 | 0.00 | 0.00 | 0.00 | 81 | 1011.4 |
| 20260508070143 | 69 | 23 | 0.0 | 3.5 | 0.00 | 0.00 | 0.00 | 81 | 1012.5 |
| 20260508065635 | 69 | 340 | 0.0 | 4.3 | 0.00 | 0.00 | 0.00 | 81 | 1012.9 |
| 20260508065244 | 69 | 299 | 0.9 | 4.3 | 0.00 | 0.00 | 0.00 | 81 | 1011.7 |
| 20260508065135 | 69 | 346 | 0.0 | 0.0 | 0.00 | 0.00 | 0.00 | 81 | 1012.9 |
| 20260508064745 | 69 | 28 | 0.9 | 3.5 | 0.00 | 0.00 | 0.00 | 81 | 1011.7 |
| 20260508064634 | 69 | 49 | 1.7 | 2.6 | 0.00 | 0.00 | 0.00 | 81 | 1012.9 |
| 20260508064244 | 69 | 9 | 0.9 | 3.5 | 0.00 | 0.00 | 0.00 | 81 | 1011.7 |
| 20260508064135 | 69 | 340 | 0.0 | 2.6 | 0.00 | 0.00 | 0.00 | 81 | 1012.9 |
| 20260508063745 | 69 | 24 | 0.9 | 3.5 | 0.00 | 0.00 | 0.00 | 81 | 1011.8 |
| 20260508063634 | 69 | 26 | 0.0 | 3.5 | 0.00 | 0.00 | 0.00 | 81 | 1012.9 |
| 20260508063245 | 69 | 25 | 0.0 | 2.6 | 0.00 | 0.00 | 0.00 | 81 | 1011.7 |
| 20260508063133 | 69 | 32 | 2.6 | 2.6 | 0.00 | 0.00 | 0.00 | 81 | 1012.9 |
| 20260508062746 | 69 | 22 | 0.0 | 0.0 | 0.00 | 0.00 | 0.00 | 81 | 1011.7 |
| 20260508062633 | 69 | 23 | 0.0 | 0.0 | 0.00 | 0.00 | 0.00 | 81 | 1012.9 |
| 20260508062244 | 69 | 19 | 0.0 | 0.9 | 0.00 | 0.00 | 0.00 | 81 | 1011.9 |
| 20260508062132 | 69 | 22 | 0.0 | 0.0 | 0.00 | 0.00 | 0.00 | 81 | 1013.2 |
| 20260508061746 | 69 | 23 | 0.0 | 0.9 | 0.00 | 0.00 | 0.00 | 81 | 1012.0 |
| 20260508061634 | 69 | 75 | 0.0 | 0.9 | 0.00 | 0.00 | 0.00 | 81 | 1013.2 |
| 20260508061244 | 69 | 73 | 0.0 | 1.7 | 0.00 | 0.00 | 0.00 | 81 | 1012.1 |
| 20260508061133 | 69 | 25 | 0.0 | 0.0 | 0.00 | 0.00 | 0.00 | 81 | 1013.2 |
| 20260508060746 | 69 | 25 | 0.0 | 3.5 | 0.00 | 0.00 | 0.00 | 81 | 1012.2 |
| 20260508060635 | 69 | 25 | 0.0 | 1.7 | 0.00 | 0.00 | 0.00 | 81 | 1013.2 |
| 20260508060246 | 69 | 30 | 0.0 | 3.5 | 0.00 | 0.00 | 0.00 | 81 | 1012.0 |
| 20260508060138 | 69 | 32 | 0.9 | 3.5 | 0.00 | 0.00 | 0.00 | 81 | 1013.2 |
| 20260508055746 | 69 | 19 | 0.9 | 3.5 | 0.00 | 0.00 | 0.00 | 81 | 1012.0 |
| 20260508055633 | 69 | 329 | 0.0 | 0.9 | 0.00 | 0.00 | 0.00 | 81 | 1013.2 |
| 20260508055246 | 69 | 36 | 0.9 | 4.3 | 0.00 | 0.00 | 0.00 | 81 | 1011.7 |
| 20260508055133 | 69 | 33 | 0.0 | 1.7 | 0.00 | 0.00 | 0.00 | 81 | 1012.9 |
| 20260508054746 | 69 | 13 | 0.9 | 4.3 | 0.00 | 0.00 | 0.00 | 81 | 1011.7 |
| 20260508054634 | 69 | 341 | 0.0 | 4.3 | 0.00 | 0.00 | 0.00 | 81 | 1012.9 |
| 20260508054245 | 69 | 38 | 0.0 | 1.7 | 0.00 | 0.00 | 0.00 | 81 | 1011.6 |
| 20260508054133 | 69 | 30 | 0.0 | 1.7 | 0.00 | 0.00 | 0.00 | 81 | 1012.9 |
| 20260508053638 | 69 | 350 | 1.7 | 1.7 | 0.00 | 0.00 | 0.00 | 82 | 1012.5 |
| 20260508053245 | 69 | 46 | 0.0 | 1.7 | 0.00 | 0.00 | 0.00 | 81 | 1011.5 |
| 20260508053131 | 69 | 26 | 0.9 | 1.7 | 0.00 | 0.00 | 0.00 | 81 | 1012.5 |
| 20260508052634 | 70 | 28 | 0.9 | 0.9 | 0.00 | 0.00 | 0.00 | 82 | 1012.5 |
| 20260508052245 | 70 | 27 | 0.9 | 5.2 | 0.00 | 0.00 | 0.00 | 82 | 1011.3 |
| 20260508052132 | 70 | 32 | 0.0 | 1.7 | 0.00 | 0.00 | 0.00 | 82 | 1012.5 |
| 20260508051744 | 70 | 31 | 0.9 | 5.2 | 0.00 | 0.00 | 0.00 | 82 | 1011.3 |
| 20260508051631 | 70 | 41 | 0.0 | 2.6 | 0.00 | 0.00 | 0.00 | 82 | 1012.5 |
| 20260508051245 | 70 | 37 | 0.0 | 2.6 | 0.00 | 0.00 | 0.00 | 82 | 1011.6 |
| 20260508051131 | 70 | 37 | 0.0 | 0.9 | 0.00 | 0.00 | 0.00 | 82 | 1012.9 |
| 20260508050744 | 70 | 25 | 0.9 | 3.5 | 0.00 | 0.00 | 0.00 | 82 | 1011.7 |
| 20260508050632 | 70 | 32 | 0.0 | 0.9 | 0.00 | 0.00 | 0.00 | 82 | 1012.9 |
| 20260508050242 | 70 | 34 | 0.0 | 3.5 | 0.00 | 0.00 | 0.00 | 82 | 1011.4 |
| 20260508050133 | 70 | 34 | 0.9 | 2.6 | 0.00 | 0.00 | 0.00 | 82 | 1012.5 |
| 20260508045631 | 70 | 337 | 0.0 | 0.9 | 0.00 | 0.00 | 0.00 | 82 | 1012.9 |
| 20260508045131 | 70 | 337 | 0.0 | 1.7 | 0.00 | 0.00 | 0.00 | 82 | 1012.5 |
| 20260508044739 | 70 | 30 | 0.0 | 3.5 | 0.00 | 0.00 | 0.00 | 82 | 1011.3 |
| 20260508044632 | 71 | 27 | 1.7 | 1.7 | 0.00 | 0.00 | 0.00 | 83 | 1012.5 |
| 20260508044236 | 71 | 324 | 0.0 | 2.6 | 0.00 | 0.00 | 0.00 | 83 | 1011.2 |
| 20260508044129 | 71 | 350 | 0.9 | 2.6 | 0.00 | 0.00 | 0.00 | 84 | 1012.5 |
| 20260508043735 | 71 | 336 | 0.0 | 0.9 | 0.00 | 0.00 | 0.00 | 85 | 1011.2 |
| 20260508043629 | 71 | 318 | 0.0 | 0.0 | 0.00 | 0.00 | 0.00 | 84 | 1012.5 |
| 20260508043236 | 71 | 318 | 0.0 | 2.6 | 0.00 | 0.00 | 0.00 | 84 | 1011.1 |
| 20260508043130 | 71 | 30 | 0.0 | 0.0 | 0.00 | 0.00 | 0.00 | 84 | 1012.2 |
| 20260508042630 | 71 | 57 | 1.7 | 2.6 | 0.00 | 0.00 | 0.00 | 84 | 1011.9 |
| 20260508042129 | 72 | 63 | 0.0 | 1.7 | 0.00 | 0.00 | 0.00 | 83 | 1011.9 |
| 20260508041734 | 72 | 54 | 1.7 | 4.3 | 0.00 | 0.00 | 0.00 | 83 | 1010.5 |
| 20260508041631 | 72 | 61 | 0.9 | 3.5 | 0.00 | 0.00 | 0.00 | 83 | 1011.5 |
| 20260508041232 | 72 | 63 | 0.9 | 3.5 | 0.00 | 0.00 | 0.00 | 83 | 1010.4 |
| 20260508041129 | 72 | 67 | 0.0 | 3.5 | 0.00 | 0.00 | 0.00 | 82 | 1011.9 |
| 20260508040733 | 72 | 67 | 0.9 | 3.5 | 0.00 | 0.00 | 0.00 | 82 | 1010.5 |
| 20260508040628 | 72 | 64 | 0.9 | 3.5 | 0.00 | 0.00 | 0.00 | 82 | 1011.9 |
| 20260508040232 | 72 | 95 | 0.9 | 2.6 | 0.00 | 0.00 | 0.00 | 82 | 1010.8 |
| 20260508040127 | 72 | 95 | 0.0 | 0.0 | 0.00 | 0.00 | 0.00 | 82 | 1011.9 |
| 20260508035630 | 72 | 78 | 0.0 | 2.6 | 0.00 | 0.00 | 0.00 | 82 | 1011.9 |
| 20260508035228 | 72 | 71 | 0.9 | 4.3 | 0.00 | 0.00 | 0.00 | 82 | 1010.4 |
| 20260508035131 | 72 | 74 | 0.0 | 0.9 | 0.00 | 0.00 | 0.00 | 82 | 1011.9 |